星链-5690 (STARLINK-5690 )

导读

STARLINK-5690是美国于2023年2月2日发射的星链卫星,隶属于SpaceX的星链互联网星座项目。星链系统旨在为全球提供高速低延迟宽带互联网服务,该卫星入轨后,进一步扩充了星链星座的规模,推进了全球卫星互联网覆盖网络的部署进程。

Basic Information
目录编号:
55480
目录名称:
STARLINK-5690
国际标识:
2023-015AH
轨道中心:
EARTH
卫星名称:
星链-5690
卫星全名:
星链-5690 (STARLINK-5690 )
卫星状态:
在轨 (已飞行1318 天)
发射日期:
2023-02-02 UTC
国别 :
美国 (US)
星等 :
--
This satellite is enrolled in the Space Conjunction Data Service (SCDS) and the current flight risk assessment level is: No High Risk
Orbit Information
数据来源 国际轨道数据
星历时间: 2026-09-12T14:48:53+0800
10小时前
查看轨道信息
半长轴: 6861.199km
偏心率: 0.0001448
轨道倾角: 43.005°
近地点辐角 282.196°
升交点赤经 5.765°
平近点角 77.873°
近地点: 482.068km
远地点: 484.056km
周期: 94.267分钟
每日圈数: 15.275757
Detailed Information
固有亮度:
5
最大亮度:
2.5
卫星平台:
Starlink v1.5
覆盖范围:
全球
运营商:
太空探索技术公司
运营商所在国:
美国
制造商(研发单位):
太空探索技术公司
制造商所在国:
美国
使用方式:
暂无
Satellite Introduction
星链(Starlink)计划是由太空探索技术公司(SpaceX)提出的一个巨型低轨卫星互联网星座项目,计划在2019年至2024年间在太空搭建由约1.2万颗卫星组成的“星链”网络,其中1584颗将部署在地球上空550千米处的近地轨道,并从2020年开始工作。该卫星仍在工作。
2D Orbit Map
3D Orbit Map
Orbit Altitude Analysis Chart
Orbit Inclination Analysis Chart
Orbit Comprehensive Analysis Chart
View Comprehensive Chart
Conjunction Data List
Event ID Objects TCA Miss Dist (km) Collision Risk Probability Collision Risk Index (CRI) Action
CDM_260914-225605-548006-414121
2026-09-14T
22:56:15+0000
0.204 km
中距离
6.337862E-4 高风险 0.91
CDM_260914-203005-548006-703521
2026-09-14T
20:30:21+0000
0.421 km
远距离
1.640559E-4 高风险 0.79
CDM_260914-132605-548006-703521
2026-09-14T
13:26:40+0000
0.423 km
远距离
1.624153E-4 高风险 0.79
CDM_260914-093305-548006-659721
2026-09-14T
09:33:15+0000
0.873 km
远距离
2.40161E-5 中风险 0.63
CDM_260915-003005-548006-414121
2026-09-15T
00:30:25+0000
1.527 km
极远距离
4.130909E-6 低风险 0.47
CDM_260914-212205-548006-414121
2026-09-14T
21:22:06+0000
1.771 km
极远距离
2.654322E-6 低风险 0.43
CDM_260912-212205-548006-494821
2026-09-12T
21:22:45+0000
2.372 km
极远距离
1.752526E-6 低风险 0.4
CDM_260914-185605-548006-703521
2026-09-14T
18:56:12+0000
2.494 km
极远距离
9.525891E-7 极低风险 0.35
CDM_260914-150005-548006-703521
2026-09-14T
15:00:49+0000
2.636 km
极远距离
8.730886E-7 极低风险 0.34
CDM_260914-115205-548006-703521
2026-09-14T
11:52:31+0000
2.641 km
极远距离
8.707729E-7 极低风险 0.34
Miss Distance Evolution Trend with All Objects
Collision Probability Evolution Trend with All Objects